Location: Unspecified
(20.0000°S, 0.0000°E)
Time: 15:19:43
(UTC+00:00)

OTV 5 (USA 277) - Pass Details

Date: 24 May 2019
Orbit: 310 x 325 km, 54.5° (Epoch: 08 May)

Event Time Altitude Azimuth Distance (km) Brightness Sun altitude
Rises 19:19:46 0° 296° (WNW) 2,026 ? -25.6°
Reaches altitude 10° 19:22:09 10° 273° (W) 1,208 ? -26.2°
Enters shadow 19:22:38 12° 264° (W) 1,084 ? -26.3°
